CDT,Max TemperatureF,Mean TemperatureF,Min TemperatureF,Max Dew PointF,MeanDew PointF,Min DewpointF,Max Humidity, Mean Humidity, Min Humidity, Max Sea Level PressureIn, Mean Sea Level PressureIn, Min Sea Level PressureIn, Max VisibilityMiles, Mean VisibilityMiles, Min VisibilityMiles, Max Wind SpeedMPH, Mean Wind SpeedMPH, Max Gust SpeedMPH,PrecipitationIn, CloudCover, Events, WindDirDegrees
2013-7-1,79,69,59,57,52,47,75,55,35,30.02,29.98,29.94,10,10,10,26,14,31,0.00,1,Rain,34
2013-7-2,72,66,59,58,56,54,90,74,55,30.07,30.03,29.99,10,10,9,22,12,,0.00,2,Rain,42
2013-7-3,77,68,60,59,56,50,94,74,42,30.09,30.05,30.02,10,9,5,8,6,,0.00,5,,345
2013-7-4,81,70,59,64,59,55,90,68,50,30.11,30.07,30.04,10,10,2,16,9,22,0.00,0,,174
2013-7-5,81,71,61,68,64,60,100,81,47,30.12,30.07,30.02,10,6,0,16,7,,0.00,2,Fog,186
2013-7-6,81,72,64,70,67,64,100,81,56,30.09,30.03,29.99,10,8,1,16,7,,0.00,1,,176
2013-7-7,88,76,65,72,68,64,93,74,51,30.03,30.00,29.96,10,10,10,15,9,17,0.00,0,,199
2013-7-8,88,80,73,76,71,68,94,79,55,30.07,30.01,29.97,10,10,5,21,11,25,0.07,2,Rain,221
2013-7-9,90,82,75,76,74,72,94,78,55,30.01,29.96,29.88,10,10,7,15,9,,0.00,1,Rain,219
2013-7-10,88,78,68,75,70,64,100,80,49,30.01,29.91,29.84,10,8,0,20,11,26,0.94,3,Fog-Rain-Thunderstorm,257
2013-7-11,81,72,63,64,59,55,93,65,42,30.08,30.06,30.02,10,10,7,13,6,16,0.00,1,,44
2013-7-12,82,70,57,62,55,47,84,57,29,30.14,30.11,30.07,10,10,10,9,6,,0.00,0,,78
2013-7-13,83,72,61,67,62,57,87,68,47,30.13,30.10,30.07,10,10,9,12,6,,0.00,1,,96
2013-7-14,88,76,63,73,68,62,97,75,51,30.17,30.14,30.10,10,10,6,13,8,,0.00,1,,118
2013-7-15,90,79,70,75,73,69,93,78,61,30.25,30.21,30.17,10,10,8,9,6,,0.00,2,Thunderstorm,137
2013-7-16,90,80,72,74,72,69,97,75,51,30.31,30.27,30.24,10,9,4,12,6,,0.00,1,,192
2013-7-17,90,80,72,75,72,70,91,75,55,30.32,30.26,30.19,10,9,0,22,6,47,1.07,3,Rain-Thunderstorm,190
2013-7-18,91,81,72,76,74,71,94,75,55,30.19,30.10,29.99,10,10,7,13,6,17,0.00,1,,219
2013-7-19,92,84,75,76,73,71,90,71,50,29.98,29.89,29.82,10,10,7,18,10,21,0.00,0,,223
2013-7-20,88,80,72,74,68,62,84,66,46,29.92,29.86,29.81,10,10,10,14,9,,0.00,1,Thunderstorm,18
2013-7-21,79,72,65,73,70,64,97,87,76,29.94,29.90,29.86,10,9,4,13,4,,0.01,2,Rain,149
2013-7-22,86,75,66,73,69,65,100,80,53,29.88,29.83,29.77,10,8,3,10,5,,0.02,3,Rain,229
2013-7-23,82,73,63,67,64,57,100,72,51,29.94,29.83,29.76,10,10,10,21,12,30,0.00,1,Rain-Thunderstorm,319
2013-7-24,77,66,56,57,54,52,93,68,43,30.06,30.02,29.96,10,10,10,14,7,,0.00,1,,49
2013-7-25,81,66,52,60,55,50,90,65,43,30.13,30.09,30.06,10,10,10,9,5,,0.00,1,,123
2013-7-26,72,66,61,68,63,58,93,85,73,30.06,30.00,29.93,10,10,6,17,9,23,0.03,4,Rain,211
2013-7-27,70,62,55,57,51,45,93,67,45,29.99,29.95,29.92,10,10,10,23,11,25,0.00,4,,297
2013-7-28,72,61,50,53,50,46,89,64,46,30.06,30.00,29.96,10,10,10,20,10,23,0.00,2,,271
2013-7-29,77,64,50,57,53,47,93,66,33,30.17,30.14,30.07,10,10,10,9,4,,0.00,1,,219
2013-7-30,68,66,63,67,64,56,100,92,70,30.17,30.10,30.05,10,5,1,15,9,21,0.32,7,Rain,146
2013-7-31,77,71,65,70,67,64,100,93,73,30.08,30.03,29.98,10,5,0,14,6,,0.00,7,Fog-Rain,246